Tracking 21612 objects as of 20-Oct-2020
HD Live streaming from Space Station
objects crossing your sky now

SL-3 DEB

Track SL-3 DEB now!
10-day predictions


NORAD ID: 14229
Int'l Code: 1983-075D
Perigee: 559.8 km
Apogee: 600.2 km
Inclination: 97.6 °
Period: 96.1 minutes
Semi major axis: 6951 km
RCS: 0.0149 m2 (small)
Launch date: July 24, 1983
Source: Commonwealth of Independent States (former USSR) (CIS)
Launch site: TYURATAM MISSILE AND SPACE COMPLEX (TTMTR)

Note: This is SATELLITE DEBRIS
aabbcc
Your satellite tracking list
Your tracking list is empty




NASA's NSSDC Master Catalog

Two Line Element Set (TLE):
1 14229U 83075D   20293.44423500 -.00000132 +00000-0 -61250-5 0  9996
2 14229 097.6079 255.7587 0029065 103.6019 012.0938 14.98060198021438
Source of the keplerian elements: AFSPC